Data supplied by UK-AIR on 5/4/2008
All Data GMT hour ending 
Status: R =Ratified P=Provisional,P*=As supplied
,,Bury Roadside,,,,,,,,,,,,,,,,,,,,,,,
Date,time,"Carbon monoxide",status,unit,"PM10 particulate matter (Hourly measured)",status,unit,"Nitric oxide",status,unit,"Nitrogen dioxide",status,unit,"Nitrogen oxides as nitrogen dioxide",status,unit,"Ozone",status,unit,"Sulphur dioxide",status,unit
 
01-01-2002,01:00,2.8,R,mgm-3,135,R,ugm-3 (GRAV EQ),291,R,ugm-3,103,R,ugm-3,548,R,ugm-3,4,R,ugm-3,37,R,ugm-3
01-01-2002,02:00,2.6,R,mgm-3,107,R,ugm-3 (GRAV EQ),251,R,ugm-3,94,R,ugm-3,478,R,ugm-3,4,R,ugm-3,35,R,ugm-3
01-01-2002,03:00,2.2,R,mgm-3,90,R,ugm-3 (GRAV EQ),234,R,ugm-3,88,R,ugm-3,445,R,ugm-3,2,R,ugm-3,29,R,ugm-3
01-01-2002,04:00,1.9,R,mgm-3,82,R,ugm-3 (GRAV EQ),204,R,ugm-3,78,R,ugm-3,390,R,ugm-3,2,R,ugm-3,27,R,ugm-3
01-01-2002,05:00,1.5,R,mgm-3,74,R,ugm-3 (GRAV EQ),199,R,ugm-3,82,R,ugm-3,386,R,ugm-3,2,R,ugm-3,27,R,ugm-3
01-01-2002,06:00,1.4,R,mgm-3,73,R,ugm-3 (GRAV EQ),208,R,ugm-3,78,R,ugm-3,395,R,ugm-3,2,R,ugm-3,27,R,ugm-3
01-01-2002,07:00,1.3,R,mgm-3,61,R,ugm-3 (GRAV EQ),214,R,ugm-3,84,R,ugm-3,411,R,ugm-3,0,R,ugm-3,29,R,ugm-3
01-01-2002,08:00,1.9,R,mgm-3,62,R,ugm-3 (GRAV EQ),243,R,ugm-3,88,R,ugm-3,458,R,ugm-3,0,R,ugm-3,32,R,ugm-3
01-01-2002,09:00,1.9,R,mgm-3,69,R,ugm-3 (GRAV EQ),261,R,ugm-3,97,R,ugm-3,497,R,ugm-3,2,R,ugm-3,32,R,ugm-3
01-01-2002,10:00,1.4,R,mgm-3,60,R,ugm-3 (GRAV EQ),210,R,ugm-3,84,R,ugm-3,405,R,ugm-3,2,R,ugm-3,29,R,ugm-3
01-01-2002,11:00,1.5,R,mgm-3,52,R,ugm-3 (GRAV EQ),193,R,ugm-3,84,R,ugm-3,378,R,ugm-3,4,R,ugm-3,29,R,ugm-3
01-01-2002,12:00,1.2,R,mgm-3,57,R,ugm-3 (GRAV EQ),173,R,ugm-3,76,R,ugm-3,340,R,ugm-3,4,R,ugm-3,35,R,ugm-3
01-01-2002,13:00,1.2,R,mgm-3,46,R,ugm-3 (GRAV EQ),134,R,ugm-3,74,R,ugm-3,279,R,ugm-3,6,R,ugm-3,35,R,ugm-3
01-01-2002,14:00,1.2,R,mgm-3,35,R,ugm-3 (GRAV EQ),168,R,ugm-3,82,R,ugm-3,338,R,ugm-3,4,R,ugm-3,29,R,ugm-3
01-01-2002,15:00,1.4,R,mgm-3,35,R,ugm-3 (GRAV EQ),199,R,ugm-3,82,R,ugm-3,386,R,ugm-3,4,R,ugm-3,29,R,ugm-3
01-01-2002,16:00,1.6,R,mgm-3,25,R,ugm-3 (GRAV EQ),209,R,ugm-3,86,R,ugm-3,405,R,ugm-3,2,R,ugm-3,27,R,ugm-3
01-01-2002,17:00,2.1,R,mgm-3,35,R,ugm-3 (GRAV EQ),248,R,ugm-3,90,R,ugm-3,468,R,ugm-3,2,R,ugm-3,35,R,ugm-3
01-01-2002,18:00,2.1,R,mgm-3,39,R,ugm-3 (GRAV EQ),260,R,ugm-3,96,R,ugm-3,493,R,ugm-3,2,R,ugm-3,48,R,ugm-3
01-01-2002,19:00,2.1,R,mgm-3,35,R,ugm-3 (GRAV EQ),273,R,ugm-3,96,R,ugm-3,512,R,ugm-3,2,R,ugm-3,51,R,ugm-3
01-01-2002,20:00,3.4,R,mgm-3,48,R,ugm-3 (GRAV EQ),373,R,ugm-3,115,R,ugm-3,684,R,ugm-3,4,R,ugm-3,51,R,ugm-3
01-01-2002,21:00,3.9,R,mgm-3,48,R,ugm-3 (GRAV EQ),436,R,ugm-3,122,R,ugm-3,789,R,ugm-3,4,R,ugm-3,53,R,ugm-3
01-01-2002,22:00,3.7,R,mgm-3,49,R,ugm-3 (GRAV EQ),431,R,ugm-3,128,R,ugm-3,787,R,ugm-3,2,R,ugm-3,51,R,ugm-3
01-01-2002,23:00,3.1,R,mgm-3,39,R,ugm-3 (GRAV EQ),380,R,ugm-3,122,R,ugm-3,703,R,ugm-3,2,R,ugm-3,48,R,ugm-3
01-01-2002,24:00,2.0,R,mgm-3,31,R,ugm-3 (GRAV EQ),273,R,ugm-3,88,R,ugm-3,504,R,ugm-3,0,R,ugm-3,37,R,ugm-3
02-01-2002,01:00,1.7,R,mgm-3,23,R,ugm-3 (GRAV EQ),231,R,ugm-3,82,R,ugm-3,435,R,ugm-3,0,R,ugm-3,32,R,ugm-3
02-01-2002,02:00,0.6,R,mgm-3,22,R,ugm-3 (GRAV EQ),199,R,ugm-3,74,R,ugm-3,378,R,ugm-3,0,R,ugm-3,32,R,ugm-3
02-01-2002,03:00,0.2,R,mgm-3,7,R,ugm-3 (GRAV EQ),158,R,ugm-3,73,R,ugm-3,313,R,ugm-3,0,R,ugm-3,29,R,ugm-3
02-01-2002,04:00,0.5,R,mgm-3,16,R,ugm-3 (GRAV EQ),156,R,ugm-3,71,R,ugm-3,309,R,ugm-3,0,R,ugm-3,24,R,ugm-3
02-01-2002,05:00,,,,,,,,,,,,,,,,,,,,,
02-01-2002,06:00,,,,,,,,,,,,,,,,,,,,,
02-01-2002,07:00,,,,,,,,,,,,,,,,,,,,,
02-01-2002,08:00,,,,,,,,,,,,,,,,,,,,,
02-01-2002,09:00,,,,,,,,,,,,,,,,,,,,,
02-01-2002,10:00,,,,,,,,,,,,,,,,,,,,,
02-01-2002,11:00,,,,,,,,,,,,,,,,,,,,,
02-01-2002,12:00,,,,,,,,,,,,,,,,,,,,,
02-01-2002,13:00,0.2,R,mgm-3,,,,255,R,ugm-3,97,R,ugm-3,487,R,ugm-3,12,R,ugm-3,29,R,ugm-3
02-01-2002,14:00,0.2,R,mgm-3,101,R,ugm-3 (GRAV EQ),239,R,ugm-3,94,R,ugm-3,458,R,ugm-3,12,R,ugm-3,32,R,ugm-3
02-01-2002,15:00,0.2,R,mgm-3,86,R,ugm-3 (GRAV EQ),274,R,ugm-3,94,R,ugm-3,512,R,ugm-3,8,R,ugm-3,35,R,ugm-3
02-01-2002,16:00,0.3,R,mgm-3,77,R,ugm-3 (GRAV EQ),285,R,ugm-3,97,R,ugm-3,533,R,ugm-3,4,R,ugm-3,40,R,ugm-3
02-01-2002,17:00,0.6,R,mgm-3,77,R,ugm-3 (GRAV EQ),296,R,ugm-3,101,R,ugm-3,554,R,ugm-3,4,R,ugm-3,40,R,ugm-3
02-01-2002,18:00,0.8,R,mgm-3,64,R,ugm-3 (GRAV EQ),296,R,ugm-3,103,R,ugm-3,556,R,ugm-3,2,R,ugm-3,43,R,ugm-3
02-01-2002,19:00,0.5,R,mgm-3,56,R,ugm-3 (GRAV EQ),218,R,ugm-3,90,R,ugm-3,422,R,ugm-3,2,R,ugm-3,37,R,ugm-3
02-01-2002,20:00,0.3,R,mgm-3,57,R,ugm-3 (GRAV EQ),193,R,ugm-3,86,R,ugm-3,380,R,ugm-3,2,R,ugm-3,37,R,ugm-3
02-01-2002,21:00,0.2,R,mgm-3,40,R,ugm-3 (GRAV EQ),95,R,ugm-3,69,R,ugm-3,214,R,ugm-3,14,R,ugm-3,32,R,ugm-3
02-01-2002,22:00,0.1,R,mgm-3,25,R,ugm-3 (GRAV EQ),60,R,ugm-3,59,R,ugm-3,151,R,ugm-3,18,R,ugm-3,24,R,ugm-3
02-01-2002,23:00,0.2,R,mgm-3,38,R,ugm-3 (GRAV EQ),105,R,ugm-3,67,R,ugm-3,227,R,ugm-3,16,R,ugm-3,24,R,ugm-3
02-01-2002,24:00,0.1,R,mgm-3,25,R,ugm-3 (GRAV EQ),56,R,ugm-3,52,R,ugm-3,138,R,ugm-3,24,R,ugm-3,19,R,ugm-3
03-01-2002,01:00,0.1,R,mgm-3,20,R,ugm-3 (GRAV EQ),38,R,ugm-3,46,R,ugm-3,103,R,ugm-3,24,R,ugm-3,13,R,ugm-3
03-01-2002,02:00,0.1,R,mgm-3,22,R,ugm-3 (GRAV EQ),33,R,ugm-3,50,R,ugm-3,99,R,ugm-3,,,,11,R,ugm-3
03-01-2002,03:00,0.1,R,mgm-3,26,R,ugm-3 (GRAV EQ),33,R,ugm-3,44,R,ugm-3,94,R,ugm-3,28,R,ugm-3,11,R,ugm-3
03-01-2002,04:00,0.1,R,mgm-3,31,R,ugm-3 (GRAV EQ),39,R,ugm-3,44,R,ugm-3,103,R,ugm-3,30,R,ugm-3,11,R,ugm-3
03-01-2002,05:00,0.1,R,mgm-3,46,R,ugm-3 (GRAV EQ),63,R,ugm-3,53,R,ugm-3,149,R,ugm-3,16,R,ugm-3,13,R,ugm-3
03-01-2002,06:00,0.1,R,mgm-3,92,R,ugm-3 (GRAV EQ),119,R,ugm-3,61,R,ugm-3,243,R,ugm-3,14,R,ugm-3,16,R,ugm-3
03-01-2002,07:00,0.1,R,mgm-3,129,R,ugm-3 (GRAV EQ),250,R,ugm-3,84,R,ugm-3,466,R,ugm-3,10,R,ugm-3,29,R,ugm-3
03-01-2002,08:00,0.5,R,mgm-3,146,R,ugm-3 (GRAV EQ),379,R,ugm-3,105,R,ugm-3,684,R,ugm-3,4,R,ugm-3,43,R,ugm-3
03-01-2002,09:00,0.5,R,mgm-3,100,R,ugm-3 (GRAV EQ),338,R,ugm-3,101,R,ugm-3,617,R,ugm-3,4,R,ugm-3,43,R,ugm-3
03-01-2002,10:00,0.2,R,mgm-3,77,R,ugm-3 (GRAV EQ),313,R,ugm-3,97,R,ugm-3,575,R,ugm-3,4,R,ugm-3,40,R,ugm-3
03-01-2002,11:00,0.3,R,mgm-3,95,R,ugm-3 (GRAV EQ),355,R,ugm-3,103,R,ugm-3,646,R,ugm-3,4,R,ugm-3,40,R,ugm-3
03-01-2002,12:00,0.3,R,mgm-3,109,R,ugm-3 (GRAV EQ),376,R,ugm-3,105,R,ugm-3,680,R,ugm-3,4,R,ugm-3,40,R,ugm-3
03-01-2002,13:00,0.3,R,mgm-3,94,R,ugm-3 (GRAV EQ),344,R,ugm-3,101,R,ugm-3,626,R,ugm-3,4,R,ugm-3,40,R,ugm-3
03-01-2002,14:00,0.3,R,mgm-3,109,R,ugm-3 (GRAV EQ),374,R,ugm-3,109,R,ugm-3,680,R,ugm-3,4,R,ugm-3,40,R,ugm-3
03-01-2002,15:00,0.2,R,mgm-3,103,R,ugm-3 (GRAV EQ),329,R,ugm-3,105,R,ugm-3,607,R,ugm-3,4,R,ugm-3,40,R,ugm-3
03-01-2002,16:00,0.3,R,mgm-3,91,R,ugm-3 (GRAV EQ),323,R,ugm-3,97,R,ugm-3,590,R,ugm-3,2,R,ugm-3,37,R,ugm-3
03-01-2002,17:00,0.9,R,mgm-3,77,R,ugm-3 (GRAV EQ),264,R,ugm-3,96,R,ugm-3,499,R,ugm-3,2,R,ugm-3,32,R,ugm-3
03-01-2002,18:00,1.2,R,mgm-3,68,R,ugm-3 (GRAV EQ),216,R,ugm-3,90,R,ugm-3,420,R,ugm-3,2,R,ugm-3,29,R,ugm-3
03-01-2002,19:00,0.3,R,mgm-3,68,R,ugm-3 (GRAV EQ),180,R,ugm-3,80,R,ugm-3,355,R,ugm-3,4,R,ugm-3,24,R,ugm-3
03-01-2002,20:00,0.5,R,mgm-3,59,R,ugm-3 (GRAV EQ),204,R,ugm-3,82,R,ugm-3,393,R,ugm-3,2,R,ugm-3,27,R,ugm-3
03-01-2002,21:00,0.3,R,mgm-3,61,R,ugm-3 (GRAV EQ),131,R,ugm-3,74,R,ugm-3,275,R,ugm-3,2,R,ugm-3,21,R,ugm-3
03-01-2002,22:00,0.3,R,mgm-3,62,R,ugm-3 (GRAV EQ),174,R,ugm-3,76,R,ugm-3,342,R,ugm-3,2,R,ugm-3,21,R,ugm-3
03-01-2002,23:00,0.2,R,mgm-3,53,R,ugm-3 (GRAV EQ),145,R,ugm-3,69,R,ugm-3,290,R,ugm-3,2,R,ugm-3,21,R,ugm-3
03-01-2002,24:00,0.1,R,mgm-3,56,R,ugm-3 (GRAV EQ),64,R,ugm-3,59,R,ugm-3,157,R,ugm-3,4,R,ugm-3,19,R,ugm-3
04-01-2002,01:00,0.1,R,mgm-3,40,R,ugm-3 (GRAV EQ),49,R,ugm-3,53,R,ugm-3,128,R,ugm-3,4,R,ugm-3,19,R,ugm-3
04-01-2002,02:00,0.1,R,mgm-3,47,R,ugm-3 (GRAV EQ),95,R,ugm-3,63,R,ugm-3,208,R,ugm-3,2,R,ugm-3,19,R,ugm-3
04-01-2002,03:00,0.1,R,mgm-3,30,R,ugm-3 (GRAV EQ),155,R,ugm-3,63,R,ugm-3,300,R,ugm-3,0,R,ugm-3,21,R,ugm-3
04-01-2002,04:00,0.1,R,mgm-3,30,R,ugm-3 (GRAV EQ),123,R,ugm-3,67,R,ugm-3,254,R,ugm-3,0,R,ugm-3,21,R,ugm-3
04-01-2002,05:00,0.1,R,mgm-3,36,R,ugm-3 (GRAV EQ),266,R,ugm-3,76,R,ugm-3,483,R,ugm-3,0,R,ugm-3,29,R,ugm-3
04-01-2002,06:00,0.1,R,mgm-3,48,R,ugm-3 (GRAV EQ),310,R,ugm-3,84,R,ugm-3,558,R,ugm-3,0,R,ugm-3,37,R,ugm-3
04-01-2002,07:00,0.3,R,mgm-3,47,R,ugm-3 (GRAV EQ),393,R,ugm-3,96,R,ugm-3,695,R,ugm-3,0,R,ugm-3,43,R,ugm-3
04-01-2002,08:00,2.2,R,mgm-3,52,R,ugm-3 (GRAV EQ),439,R,ugm-3,113,R,ugm-3,783,R,ugm-3,2,R,ugm-3,43,R,ugm-3
04-01-2002,09:00,2.3,R,mgm-3,66,R,ugm-3 (GRAV EQ),616,R,ugm-3,138,R,ugm-3,1079,R,ugm-3,4,R,ugm-3,59,R,ugm-3
04-01-2002,10:00,,,,,,,,,,,,,,,,,,,,,
04-01-2002,11:00,0.6,R,mgm-3,157,R,ugm-3 (GRAV EQ),370,R,ugm-3,96,R,ugm-3,661,R,ugm-3,10,R,ugm-3,59,R,ugm-3
04-01-2002,12:00,0.5,R,mgm-3,164,R,ugm-3 (GRAV EQ),405,R,ugm-3,97,R,ugm-3,716,R,ugm-3,4,R,ugm-3,59,R,ugm-3
04-01-2002,13:00,0.6,R,mgm-3,212,R,ugm-3 (GRAV EQ),426,R,ugm-3,111,R,ugm-3,762,R,ugm-3,4,R,ugm-3,67,R,ugm-3
04-01-2002,14:00,0.5,R,mgm-3,125,R,ugm-3 (GRAV EQ),363,R,ugm-3,101,R,ugm-3,655,R,ugm-3,4,R,ugm-3,59,R,ugm-3
04-01-2002,15:00,0.5,R,mgm-3,74,R,ugm-3 (GRAV EQ),298,R,ugm-3,92,R,ugm-3,546,R,ugm-3,2,R,ugm-3,51,R,ugm-3
04-01-2002,16:00,0.6,R,mgm-3,62,R,ugm-3 (GRAV EQ),313,R,ugm-3,94,R,ugm-3,571,R,ugm-3,2,R,ugm-3,67,R,ugm-3
04-01-2002,17:00,1.3,R,mgm-3,62,R,ugm-3 (GRAV EQ),391,R,ugm-3,99,R,ugm-3,697,R,ugm-3,2,R,ugm-3,72,R,ugm-3
04-01-2002,18:00,1.3,R,mgm-3,74,R,ugm-3 (GRAV EQ),341,R,ugm-3,99,R,ugm-3,621,R,ugm-3,2,R,ugm-3,74,R,ugm-3
04-01-2002,19:00,1.3,R,mgm-3,57,R,ugm-3 (GRAV EQ),309,R,ugm-3,96,R,ugm-3,567,R,ugm-3,2,R,ugm-3,67,R,ugm-3
04-01-2002,20:00,0.9,R,mgm-3,56,R,ugm-3 (GRAV EQ),261,R,ugm-3,86,R,ugm-3,485,R,ugm-3,0,R,ugm-3,56,R,ugm-3
04-01-2002,21:00,0.9,R,mgm-3,51,R,ugm-3 (GRAV EQ),224,R,ugm-3,84,R,ugm-3,426,R,ugm-3,2,R,ugm-3,51,R,ugm-3
04-01-2002,22:00,1.5,R,mgm-3,56,R,ugm-3 (GRAV EQ),200,R,ugm-3,86,R,ugm-3,392,R,ugm-3,2,R,ugm-3,40,R,ugm-3
04-01-2002,23:00,0.9,R,mgm-3,47,R,ugm-3 (GRAV EQ),243,R,ugm-3,80,R,ugm-3,451,R,ugm-3,2,R,ugm-3,37,R,ugm-3
04-01-2002,24:00,0.9,R,mgm-3,46,R,ugm-3 (GRAV EQ),224,R,ugm-3,78,R,ugm-3,420,R,ugm-3,0,R,ugm-3,35,R,ugm-3
05-01-2002,01:00,1.0,R,mgm-3,48,R,ugm-3 (GRAV EQ),176,R,ugm-3,74,R,ugm-3,344,R,ugm-3,0,R,ugm-3,29,R,ugm-3
05-01-2002,02:00,0.7,R,mgm-3,46,R,ugm-3 (GRAV EQ),221,R,ugm-3,71,R,ugm-3,409,R,ugm-3,0,R,ugm-3,32,R,ugm-3
05-01-2002,03:00,0.3,R,mgm-3,35,R,ugm-3 (GRAV EQ),108,R,ugm-3,55,R,ugm-3,220,R,ugm-3,0,R,ugm-3,24,R,ugm-3
05-01-2002,04:00,0.2,R,mgm-3,33,R,ugm-3 (GRAV EQ),115,R,ugm-3,55,R,ugm-3,231,R,ugm-3,0,R,ugm-3,21,R,ugm-3
05-01-2002,05:00,0.2,R,mgm-3,31,R,ugm-3 (GRAV EQ),151,R,ugm-3,55,R,ugm-3,287,R,ugm-3,0,R,ugm-3,24,R,ugm-3
05-01-2002,06:00,0.2,R,mgm-3,33,R,ugm-3 (GRAV EQ),176,R,ugm-3,59,R,ugm-3,329,R,ugm-3,0,R,ugm-3,24,R,ugm-3
05-01-2002,07:00,0.5,R,mgm-3,40,R,ugm-3 (GRAV EQ),209,R,ugm-3,61,R,ugm-3,380,R,ugm-3,0,R,ugm-3,24,R,ugm-3
05-01-2002,08:00,0.6,R,mgm-3,82,R,ugm-3 (GRAV EQ),253,R,ugm-3,65,R,ugm-3,451,R,ugm-3,0,R,ugm-3,27,R,ugm-3
05-01-2002,09:00,0.6,R,mgm-3,73,R,ugm-3 (GRAV EQ),234,R,ugm-3,65,R,ugm-3,422,R,ugm-3,0,R,ugm-3,27,R,ugm-3
05-01-2002,10:00,0.6,R,mgm-3,53,R,ugm-3 (GRAV EQ),239,R,ugm-3,65,R,ugm-3,430,R,ugm-3,0,R,ugm-3,27,R,ugm-3
05-01-2002,11:00,0.6,R,mgm-3,48,R,ugm-3 (GRAV EQ),206,R,ugm-3,57,R,ugm-3,372,R,ugm-3,0,R,ugm-3,24,R,ugm-3
05-01-2002,12:00,0.7,R,mgm-3,46,R,ugm-3 (GRAV EQ),199,R,ugm-3,61,R,ugm-3,365,R,ugm-3,0,R,ugm-3,24,R,ugm-3
05-01-2002,13:00,0.8,R,mgm-3,52,R,ugm-3 (GRAV EQ),211,R,ugm-3,61,R,ugm-3,384,R,ugm-3,0,R,ugm-3,24,R,ugm-3
05-01-2002,14:00,0.8,R,mgm-3,49,R,ugm-3 (GRAV EQ),195,R,ugm-3,57,R,ugm-3,355,R,ugm-3,0,R,ugm-3,24,R,ugm-3
05-01-2002,15:00,1.0,R,mgm-3,60,R,ugm-3 (GRAV EQ),191,R,ugm-3,55,R,ugm-3,348,R,ugm-3,0,R,ugm-3,21,R,ugm-3
05-01-2002,16:00,1.3,R,mgm-3,70,R,ugm-3 (GRAV EQ),213,R,ugm-3,57,R,ugm-3,382,R,ugm-3,0,R,ugm-3,21,R,ugm-3
05-01-2002,17:00,3.1,R,mgm-3,79,R,ugm-3 (GRAV EQ),413,R,ugm-3,88,R,ugm-3,718,R,ugm-3,0,R,ugm-3,32,R,ugm-3
05-01-2002,18:00,3.2,R,mgm-3,70,R,ugm-3 (GRAV EQ),415,R,ugm-3,92,R,ugm-3,726,R,ugm-3,0,R,ugm-3,37,R,ugm-3
05-01-2002,19:00,3.0,R,mgm-3,60,R,ugm-3 (GRAV EQ),328,R,ugm-3,82,R,ugm-3,583,R,ugm-3,0,R,ugm-3,32,R,ugm-3
05-01-2002,20:00,3.0,R,mgm-3,59,R,ugm-3 (GRAV EQ),320,R,ugm-3,80,R,ugm-3,569,R,ugm-3,2,R,ugm-3,32,R,ugm-3
05-01-2002,21:00,3.0,R,mgm-3,62,R,ugm-3 (GRAV EQ),363,R,ugm-3,84,R,ugm-3,638,R,ugm-3,2,R,ugm-3,35,R,ugm-3
05-01-2002,22:00,2.9,R,mgm-3,60,R,ugm-3 (GRAV EQ),348,R,ugm-3,88,R,ugm-3,619,R,ugm-3,0,R,ugm-3,35,R,ugm-3
05-01-2002,23:00,2.7,R,mgm-3,55,R,ugm-3 (GRAV EQ),354,R,ugm-3,86,R,ugm-3,626,R,ugm-3,0,R,ugm-3,35,R,ugm-3
05-01-2002,24:00,1.0,R,mgm-3,26,R,ugm-3 (GRAV EQ),134,R,ugm-3,63,R,ugm-3,267,R,ugm-3,0,R,ugm-3,24,R,ugm-3
06-01-2002,01:00,0.3,R,mgm-3,13,R,ugm-3 (GRAV EQ),51,R,ugm-3,63,R,ugm-3,141,R,ugm-3,0,R,ugm-3,11,R,ugm-3
06-01-2002,02:00,0.5,R,mgm-3,13,R,ugm-3 (GRAV EQ),103,R,ugm-3,69,R,ugm-3,225,R,ugm-3,0,R,ugm-3,13,R,ugm-3
06-01-2002,03:00,0.6,R,mgm-3,21,R,ugm-3 (GRAV EQ),98,R,ugm-3,65,R,ugm-3,214,R,ugm-3,0,R,ugm-3,11,R,ugm-3
06-01-2002,04:00,0.2,R,mgm-3,13,R,ugm-3 (GRAV EQ),75,R,ugm-3,61,R,ugm-3,176,R,ugm-3,0,R,ugm-3,13,R,ugm-3
06-01-2002,05:00,0.1,R,mgm-3,12,R,ugm-3 (GRAV EQ),74,R,ugm-3,65,R,ugm-3,178,R,ugm-3,0,R,ugm-3,16,R,ugm-3
06-01-2002,06:00,0.1,R,mgm-3,10,R,ugm-3 (GRAV EQ),85,R,ugm-3,65,R,ugm-3,195,R,ugm-3,0,R,ugm-3,19,R,ugm-3
06-01-2002,07:00,0.1,R,mgm-3,12,R,ugm-3 (GRAV EQ),100,R,ugm-3,67,R,ugm-3,220,R,ugm-3,0,R,ugm-3,21,R,ugm-3
06-01-2002,08:00,0.1,R,mgm-3,5,R,ugm-3 (GRAV EQ),71,R,ugm-3,63,R,ugm-3,172,R,ugm-3,0,R,ugm-3,16,R,ugm-3
06-01-2002,09:00,0.1,R,mgm-3,9,R,ugm-3 (GRAV EQ),89,R,ugm-3,63,R,ugm-3,199,R,ugm-3,0,R,ugm-3,16,R,ugm-3
06-01-2002,10:00,0.3,R,mgm-3,13,R,ugm-3 (GRAV EQ),98,R,ugm-3,63,R,ugm-3,212,R,ugm-3,0,R,ugm-3,13,R,ugm-3
06-01-2002,11:00,0.7,R,mgm-3,17,R,ugm-3 (GRAV EQ),99,R,ugm-3,63,R,ugm-3,214,R,ugm-3,0,R,ugm-3,11,R,ugm-3
06-01-2002,12:00,0.7,R,mgm-3,21,R,ugm-3 (GRAV EQ),116,R,ugm-3,65,R,ugm-3,243,R,ugm-3,0,R,ugm-3,16,R,ugm-3
06-01-2002,13:00,0.7,R,mgm-3,26,R,ugm-3 (GRAV EQ),116,R,ugm-3,65,R,ugm-3,243,R,ugm-3,0,R,ugm-3,16,R,ugm-3
06-01-2002,14:00,1.2,R,mgm-3,36,R,ugm-3 (GRAV EQ),100,R,ugm-3,67,R,ugm-3,220,R,ugm-3,0,R,ugm-3,13,R,ugm-3
06-01-2002,15:00,1.4,R,mgm-3,47,R,ugm-3 (GRAV EQ),156,R,ugm-3,67,R,ugm-3,306,R,ugm-3,0,R,ugm-3,19,R,ugm-3
06-01-2002,16:00,1.6,R,mgm-3,55,R,ugm-3 (GRAV EQ),158,R,ugm-3,69,R,ugm-3,309,R,ugm-3,0,R,ugm-3,16,R,ugm-3
06-01-2002,17:00,2.3,R,mgm-3,68,R,ugm-3 (GRAV EQ),246,R,ugm-3,80,R,ugm-3,456,R,ugm-3,0,R,ugm-3,19,R,ugm-3
06-01-2002,18:00,2.4,R,mgm-3,56,R,ugm-3 (GRAV EQ),301,R,ugm-3,86,R,ugm-3,546,R,ugm-3,0,R,ugm-3,27,R,ugm-3
06-01-2002,19:00,2.1,R,mgm-3,49,R,ugm-3 (GRAV EQ),269,R,ugm-3,82,R,ugm-3,493,R,ugm-3,0,R,ugm-3,29,R,ugm-3
06-01-2002,20:00,2.2,R,mgm-3,49,R,ugm-3 (GRAV EQ),286,R,ugm-3,86,R,ugm-3,523,R,ugm-3,0,R,ugm-3,27,R,ugm-3
06-01-2002,21:00,2.6,R,mgm-3,49,R,ugm-3 (GRAV EQ),314,R,ugm-3,88,R,ugm-3,567,R,ugm-3,0,R,ugm-3,29,R,ugm-3
06-01-2002,22:00,3.2,R,mgm-3,56,R,ugm-3 (GRAV EQ),378,R,ugm-3,101,R,ugm-3,678,R,ugm-3,0,R,ugm-3,32,R,ugm-3
06-01-2002,23:00,1.5,R,mgm-3,44,R,ugm-3 (GRAV EQ),221,R,ugm-3,76,R,ugm-3,414,R,ugm-3,0,R,ugm-3,27,R,ugm-3
06-01-2002,24:00,0.8,R,mgm-3,35,R,ugm-3 (GRAV EQ),173,R,ugm-3,63,R,ugm-3,327,R,ugm-3,0,R,ugm-3,21,R,ugm-3
07-01-2002,01:00,0.8,R,mgm-3,36,R,ugm-3 (GRAV EQ),170,R,ugm-3,63,R,ugm-3,323,R,ugm-3,0,R,ugm-3,19,R,ugm-3
07-01-2002,02:00,0.8,R,mgm-3,39,R,ugm-3 (GRAV EQ),140,R,ugm-3,61,R,ugm-3,275,R,ugm-3,0,R,ugm-3,16,R,ugm-3
07-01-2002,03:00,0.6,R,mgm-3,34,R,ugm-3 (GRAV EQ),131,R,ugm-3,57,R,ugm-3,258,R,ugm-3,0,R,ugm-3,16,R,ugm-3
07-01-2002,04:00,0.5,R,mgm-3,36,R,ugm-3 (GRAV EQ),263,R,ugm-3,71,R,ugm-3,472,R,ugm-3,0,R,ugm-3,21,R,ugm-3
07-01-2002,05:00,0.5,R,mgm-3,38,R,ugm-3 (GRAV EQ),184,R,ugm-3,59,R,ugm-3,340,R,ugm-3,0,R,ugm-3,19,R,ugm-3
07-01-2002,06:00,0.3,R,mgm-3,36,R,ugm-3 (GRAV EQ),349,R,ugm-3,84,R,ugm-3,617,R,ugm-3,0,R,ugm-3,27,R,ugm-3
07-01-2002,07:00,0.6,R,mgm-3,39,R,ugm-3 (GRAV EQ),398,R,ugm-3,97,R,ugm-3,705,R,ugm-3,0,R,ugm-3,32,R,ugm-3
07-01-2002,08:00,1.3,R,mgm-3,46,R,ugm-3 (GRAV EQ),338,R,ugm-3,92,R,ugm-3,607,R,ugm-3,0,R,ugm-3,32,R,ugm-3
07-01-2002,09:00,0.7,R,mgm-3,43,R,ugm-3 (GRAV EQ),348,R,ugm-3,90,R,ugm-3,621,R,ugm-3,0,R,ugm-3,32,R,ugm-3
07-01-2002,10:00,0.7,R,mgm-3,52,R,ugm-3 (GRAV EQ),391,R,ugm-3,94,R,ugm-3,691,R,ugm-3,0,R,ugm-3,35,R,ugm-3
07-01-2002,11:00,0.6,R,mgm-3,51,R,ugm-3 (GRAV EQ),395,R,ugm-3,94,R,ugm-3,697,R,ugm-3,0,R,ugm-3,35,R,ugm-3
07-01-2002,12:00,0.6,R,mgm-3,47,R,ugm-3 (GRAV EQ),443,R,ugm-3,99,R,ugm-3,775,R,ugm-3,0,R,ugm-3,37,R,ugm-3
07-01-2002,13:00,0.5,R,mgm-3,46,R,ugm-3 (GRAV EQ),373,R,ugm-3,94,R,ugm-3,663,R,ugm-3,0,R,ugm-3,35,R,ugm-3
07-01-2002,14:00,0.8,R,mgm-3,53,R,ugm-3 (GRAV EQ),454,R,ugm-3,105,R,ugm-3,798,R,ugm-3,0,R,ugm-3,37,R,ugm-3
07-01-2002,15:00,0.9,R,mgm-3,55,R,ugm-3 (GRAV EQ),461,R,ugm-3,109,R,ugm-3,814,R,ugm-3,0,R,ugm-3,40,R,ugm-3
07-01-2002,16:00,0.9,R,mgm-3,57,R,ugm-3 (GRAV EQ),450,R,ugm-3,109,R,ugm-3,796,R,ugm-3,0,R,ugm-3,43,R,ugm-3
07-01-2002,17:00,1.5,R,mgm-3,60,R,ugm-3 (GRAV EQ),428,R,ugm-3,109,R,ugm-3,762,R,ugm-3,0,R,ugm-3,40,R,ugm-3
07-01-2002,18:00,1.7,R,mgm-3,55,R,ugm-3 (GRAV EQ),388,R,ugm-3,105,R,ugm-3,697,R,ugm-3,0,R,ugm-3,40,R,ugm-3
07-01-2002,19:00,2.1,R,mgm-3,56,R,ugm-3 (GRAV EQ),381,R,ugm-3,107,R,ugm-3,690,R,ugm-3,0,R,ugm-3,40,R,ugm-3
07-01-2002,20:00,1.7,R,mgm-3,48,R,ugm-3 (GRAV EQ),356,R,ugm-3,97,R,ugm-3,642,R,ugm-3,0,R,ugm-3,37,R,ugm-3
07-01-2002,21:00,1.9,R,mgm-3,53,R,ugm-3 (GRAV EQ),345,R,ugm-3,99,R,ugm-3,626,R,ugm-3,0,R,ugm-3,37,R,ugm-3
07-01-2002,22:00,1.3,R,mgm-3,42,R,ugm-3 (GRAV EQ),289,R,ugm-3,90,R,ugm-3,531,R,ugm-3,0,R,ugm-3,32,R,ugm-3
07-01-2002,23:00,1.4,R,mgm-3,40,R,ugm-3 (GRAV EQ),266,R,ugm-3,86,R,ugm-3,493,R,ugm-3,0,R,ugm-3,32,R,ugm-3
07-01-2002,24:00,0.7,R,mgm-3,31,R,ugm-3 (GRAV EQ),131,R,ugm-3,67,R,ugm-3,267,R,ugm-3,0,R,ugm-3,21,R,ugm-3
08-01-2002,01:00,0.2,R,mgm-3,29,R,ugm-3 (GRAV EQ),130,R,ugm-3,65,R,ugm-3,264,R,ugm-3,0,R,ugm-3,16,R,ugm-3
08-01-2002,02:00,0.2,R,mgm-3,34,R,ugm-3 (GRAV EQ),189,R,ugm-3,71,R,ugm-3,359,R,ugm-3,0,R,ugm-3,16,R,ugm-3
08-01-2002,03:00,0.1,R,mgm-3,30,R,ugm-3 (GRAV EQ),111,R,ugm-3,63,R,ugm-3,233,R,ugm-3,0,R,ugm-3,13,R,ugm-3
08-01-2002,04:00,0.0,R,mgm-3,26,R,ugm-3 (GRAV EQ),131,R,ugm-3,63,R,ugm-3,264,R,ugm-3,0,R,ugm-3,13,R,ugm-3
08-01-2002,05:00,0.0,R,mgm-3,26,R,ugm-3 (GRAV EQ),178,R,ugm-3,67,R,ugm-3,338,R,ugm-3,0,R,ugm-3,16,R,ugm-3
08-01-2002,06:00,0.2,R,mgm-3,29,R,ugm-3 (GRAV EQ),260,R,ugm-3,78,R,ugm-3,476,R,ugm-3,0,R,ugm-3,21,R,ugm-3
08-01-2002,07:00,0.9,R,mgm-3,46,R,ugm-3 (GRAV EQ),293,R,ugm-3,86,R,ugm-3,533,R,ugm-3,0,R,ugm-3,24,R,ugm-3
08-01-2002,08:00,1.3,R,mgm-3,53,R,ugm-3 (GRAV EQ),373,R,ugm-3,105,R,ugm-3,674,R,ugm-3,0,R,ugm-3,29,R,ugm-3
08-01-2002,09:00,2.0,R,mgm-3,49,R,ugm-3 (GRAV EQ),269,R,ugm-3,88,R,ugm-3,499,R,ugm-3,0,R,ugm-3,24,R,ugm-3
08-01-2002,10:00,2.0,R,mgm-3,53,R,ugm-3 (GRAV EQ),309,R,ugm-3,97,R,ugm-3,569,R,ugm-3,0,R,ugm-3,29,R,ugm-3
08-01-2002,11:00,1.9,R,mgm-3,65,R,ugm-3 (GRAV EQ),495,R,ugm-3,124,R,ugm-3,881,R,ugm-3,0,R,ugm-3,40,R,ugm-3
08-01-2002,12:00,1.0,R,mgm-3,53,R,ugm-3 (GRAV EQ),368,R,ugm-3,105,R,ugm-3,667,R,ugm-3,0,R,ugm-3,35,R,ugm-3
08-01-2002,13:00,0.3,R,mgm-3,33,R,ugm-3 (GRAV EQ),210,R,ugm-3,74,R,ugm-3,395,R,ugm-3,0,R,ugm-3,24,R,ugm-3
08-01-2002,14:00,0.3,R,mgm-3,34,R,ugm-3 (GRAV EQ),179,R,ugm-3,69,R,ugm-3,342,R,ugm-3,0,R,ugm-3,21,R,ugm-3
08-01-2002,15:00,0.5,R,mgm-3,49,R,ugm-3 (GRAV EQ),285,R,ugm-3,86,R,ugm-3,521,R,ugm-3,0,R,ugm-3,27,R,ugm-3
08-01-2002,16:00,1.4,R,mgm-3,51,R,ugm-3 (GRAV EQ),253,R,ugm-3,82,R,ugm-3,468,R,ugm-3,2,R,ugm-3,27,R,ugm-3
08-01-2002,17:00,1.9,R,mgm-3,59,R,ugm-3 (GRAV EQ),274,R,ugm-3,92,R,ugm-3,510,R,ugm-3,0,R,ugm-3,35,R,ugm-3
08-01-2002,18:00,1.4,R,mgm-3,74,R,ugm-3 (GRAV EQ),376,R,ugm-3,113,R,ugm-3,688,R,ugm-3,0,R,ugm-3,45,R,ugm-3
08-01-2002,19:00,0.9,R,mgm-3,81,R,ugm-3 (GRAV EQ),349,R,ugm-3,107,R,ugm-3,640,R,ugm-3,0,R,ugm-3,45,R,ugm-3
08-01-2002,20:00,0.3,R,mgm-3,60,R,ugm-3 (GRAV EQ),256,R,ugm-3,92,R,ugm-3,483,R,ugm-3,0,R,ugm-3,37,R,ugm-3
08-01-2002,21:00,0.2,R,mgm-3,51,R,ugm-3 (GRAV EQ),180,R,ugm-3,76,R,ugm-3,351,R,ugm-3,4,R,ugm-3,24,R,ugm-3
08-01-2002,22:00,0.1,R,mgm-3,42,R,ugm-3 (GRAV EQ),159,R,ugm-3,71,R,ugm-3,313,R,ugm-3,4,R,ugm-3,19,R,ugm-3
08-01-2002,23:00,0.0,R,mgm-3,30,R,ugm-3 (GRAV EQ),116,R,ugm-3,57,R,ugm-3,235,R,ugm-3,6,R,ugm-3,13,R,ugm-3
08-01-2002,24:00,0.0,R,mgm-3,35,R,ugm-3 (GRAV EQ),103,R,ugm-3,53,R,ugm-3,210,R,ugm-3,8,R,ugm-3,13,R,ugm-3
09-01-2002,01:00,0.1,R,mgm-3,35,R,ugm-3 (GRAV EQ),111,R,ugm-3,55,R,ugm-3,225,R,ugm-3,6,R,ugm-3,16,R,ugm-3
09-01-2002,02:00,0.1,R,mgm-3,29,R,ugm-3 (GRAV EQ),70,R,ugm-3,46,R,ugm-3,153,R,ugm-3,14,R,ugm-3,13,R,ugm-3
09-01-2002,03:00,0.1,R,mgm-3,23,R,ugm-3 (GRAV EQ),64,R,ugm-3,44,R,ugm-3,141,R,ugm-3,14,R,ugm-3,11,R,ugm-3
09-01-2002,04:00,0.1,R,mgm-3,25,R,ugm-3 (GRAV EQ),76,R,ugm-3,46,R,ugm-3,162,R,ugm-3,12,R,ugm-3,11,R,ugm-3
09-01-2002,05:00,0.1,R,mgm-3,31,R,ugm-3 (GRAV EQ),153,R,ugm-3,55,R,ugm-3,288,R,ugm-3,6,R,ugm-3,13,R,ugm-3
09-01-2002,06:00,0.1,R,mgm-3,46,R,ugm-3 (GRAV EQ),224,R,ugm-3,67,R,ugm-3,409,R,ugm-3,2,R,ugm-3,35,R,ugm-3
09-01-2002,07:00,0.2,R,mgm-3,73,R,ugm-3 (GRAV EQ),389,R,ugm-3,99,R,ugm-3,693,R,ugm-3,0,R,ugm-3,43,R,ugm-3
09-01-2002,08:00,0.7,R,mgm-3,75,R,ugm-3 (GRAV EQ),363,R,ugm-3,107,R,ugm-3,661,R,ugm-3,0,R,ugm-3,43,R,ugm-3
09-01-2002,09:00,1.4,R,mgm-3,75,R,ugm-3 (GRAV EQ),329,R,ugm-3,99,R,ugm-3,602,R,ugm-3,0,R,ugm-3,40,R,ugm-3
09-01-2002,10:00,1.0,R,mgm-3,81,R,ugm-3 (GRAV EQ),411,R,ugm-3,113,R,ugm-3,741,R,ugm-3,0,R,ugm-3,45,R,ugm-3
09-01-2002,11:00,0.7,R,mgm-3,87,R,ugm-3 (GRAV EQ),435,R,ugm-3,115,R,ugm-3,779,R,ugm-3,2,R,ugm-3,59,R,ugm-3
09-01-2002,12:00,0.5,R,mgm-3,79,R,ugm-3 (GRAV EQ),435,R,ugm-3,113,R,ugm-3,777,R,ugm-3,2,R,ugm-3,56,R,ugm-3
09-01-2002,13:00,0.6,R,mgm-3,87,R,ugm-3 (GRAV EQ),459,R,ugm-3,113,R,ugm-3,814,R,ugm-3,2,R,ugm-3,56,R,ugm-3
09-01-2002,14:00,0.6,R,mgm-3,88,R,ugm-3 (GRAV EQ),399,R,ugm-3,103,R,ugm-3,712,R,ugm-3,2,R,ugm-3,48,R,ugm-3
09-01-2002,15:00,0.6,R,mgm-3,78,R,ugm-3 (GRAV EQ),374,R,ugm-3,99,R,ugm-3,670,R,ugm-3,0,R,ugm-3,43,R,ugm-3
09-01-2002,16:00,0.7,R,mgm-3,74,R,ugm-3 (GRAV EQ),376,R,ugm-3,101,R,ugm-3,676,R,ugm-3,0,R,ugm-3,45,R,ugm-3
09-01-2002,17:00,1.2,R,mgm-3,82,R,ugm-3 (GRAV EQ),371,R,ugm-3,99,R,ugm-3,667,R,ugm-3,0,R,ugm-3,45,R,ugm-3
09-01-2002,18:00,1.4,R,mgm-3,90,R,ugm-3 (GRAV EQ),351,R,ugm-3,99,R,ugm-3,636,R,ugm-3,2,R,ugm-3,48,R,ugm-3
09-01-2002,19:00,1.3,R,mgm-3,86,R,ugm-3 (GRAV EQ),349,R,ugm-3,99,R,ugm-3,632,R,ugm-3,2,R,ugm-3,59,R,ugm-3
09-01-2002,20:00,1.0,R,mgm-3,82,R,ugm-3 (GRAV EQ),306,R,ugm-3,90,R,ugm-3,558,R,ugm-3,0,R,ugm-3,51,R,ugm-3
09-01-2002,21:00,0.8,R,mgm-3,68,R,ugm-3 (GRAV EQ),203,R,ugm-3,74,R,ugm-3,384,R,ugm-3,0,R,ugm-3,40,R,ugm-3
09-01-2002,22:00,0.9,R,mgm-3,70,R,ugm-3 (GRAV EQ),265,R,ugm-3,82,R,ugm-3,487,R,ugm-3,2,R,ugm-3,40,R,ugm-3
09-01-2002,23:00,0.6,R,mgm-3,61,R,ugm-3 (GRAV EQ),216,R,ugm-3,73,R,ugm-3,403,R,ugm-3,0,R,ugm-3,35,R,ugm-3
09-01-2002,24:00,0.6,R,mgm-3,61,R,ugm-3 (GRAV EQ),194,R,ugm-3,69,R,ugm-3,365,R,ugm-3,0,R,ugm-3,35,R,ugm-3
10-01-2002,01:00,0.3,R,mgm-3,52,R,ugm-3 (GRAV EQ),168,R,ugm-3,65,R,ugm-3,321,R,ugm-3,0,R,ugm-3,27,R,ugm-3
10-01-2002,02:00,0.3,R,mgm-3,42,R,ugm-3 (GRAV EQ),174,R,ugm-3,71,R,ugm-3,336,R,ugm-3,0,R,ugm-3,27,R,ugm-3
10-01-2002,03:00,0.3,R,mgm-3,39,R,ugm-3 (GRAV EQ),138,R,ugm-3,67,R,ugm-3,277,R,ugm-3,0,R,ugm-3,24,R,ugm-3
10-01-2002,04:00,0.2,R,mgm-3,38,R,ugm-3 (GRAV EQ),76,R,ugm-3,57,R,ugm-3,174,R,ugm-3,0,R,ugm-3,21,R,ugm-3
10-01-2002,05:00,0.3,R,mgm-3,48,R,ugm-3 (GRAV EQ),123,R,ugm-3,59,R,ugm-3,246,R,ugm-3,0,R,ugm-3,21,R,ugm-3
10-01-2002,06:00,0.3,R,mgm-3,39,R,ugm-3 (GRAV EQ),163,R,ugm-3,63,R,ugm-3,311,R,ugm-3,0,R,ugm-3,24,R,ugm-3
10-01-2002,07:00,0.6,R,mgm-3,59,R,ugm-3 (GRAV EQ),356,R,ugm-3,90,R,ugm-3,634,R,ugm-3,0,R,ugm-3,35,R,ugm-3
10-01-2002,08:00,0.9,R,mgm-3,66,R,ugm-3 (GRAV EQ),361,R,ugm-3,99,R,ugm-3,651,R,ugm-3,0,R,ugm-3,40,R,ugm-3
10-01-2002,09:00,1.6,R,mgm-3,60,R,ugm-3 (GRAV EQ),300,R,ugm-3,99,R,ugm-3,558,R,ugm-3,0,R,ugm-3,35,R,ugm-3
10-01-2002,10:00,0.9,R,mgm-3,60,R,ugm-3 (GRAV EQ),230,R,ugm-3,82,R,ugm-3,434,R,ugm-3,0,R,ugm-3,35,R,ugm-3
10-01-2002,11:00,0.8,R,mgm-3,65,R,ugm-3 (GRAV EQ),350,R,ugm-3,101,R,ugm-3,636,R,ugm-3,0,R,ugm-3,40,R,ugm-3
10-01-2002,12:00,0.8,R,mgm-3,65,R,ugm-3 (GRAV EQ),456,R,ugm-3,115,R,ugm-3,812,R,ugm-3,0,R,ugm-3,48,R,ugm-3